Globalstar M082

operational
NORAD ID: 38042 Int'l Des: 2011-080 Owner: GLOBL Country: US Constellation: globalstar
LEOCIRCULAR

Über Globalstar M082

Beschreibung wird geladen...

Live-Position

3D-Globus wird geladen...

Nächste Überflüge

Höhenverlauf

Altitude vs Time

uPlot chart will show altitude changes over time

Zweizeiliger Elementsatz

1 38042U 11080C 25299.27030145 -.00000087 00000-0 95295-4 0 9996
2 38042 52.0089 326.5238 0000666 104.6542 335.3517 12.62264189640055
Epoch: 26. Okt. 2025 • Age: 8 hours

Aktueller Status

Höhe 1420.8 km
Geschwindigkeit 7.15 km/s
Subsatellitenpunkt -24.80°S, 90.49°W
Startdatum 28. Dez. 2011
Alter 13.8 years
Typ communications

Technische Details

Klassifizierung Payload
Masse 715.00 kg
Trockenmasse 500.00 kg
Gesamtmasse 715.00 kg
Länge 4.00 m
Durchmesser 2.00 m
Spannweite 12.00 m
Form Trap Cyl + 2 Pan
Hersteller THALR
Bus-Typ Prisma
Phasenstatus In Orbit
Besitzer/Staat GLOBL/US

Große Konstellationen

Loading constellations...